TimeMST,TemperatureF,Dew PointF,Humidity,Sea Level PressureIn,VisibilityMPH,Wind Direction,Wind SpeedMPH,Gust SpeedMPH,PrecipitationIn,Events,Conditions,WindDirDegrees,DateUTC
12:53 AM,28.0,17.1,63,29.84,10.0,SW,15.0,-,N/A,,Scattered Clouds,220,2012-12-08 07:53:00
1:53 AM,27.0,17.1,66,29.84,10.0,West,10.4,-,N/A,,Clear,260,2012-12-08 08:53:00
2:53 AM,28.0,19.0,69,29.81,10.0,SW,15.0,-,N/A,,Overcast,220,2012-12-08 09:53:00
3:53 AM,26.6,19.4,74,29.75,10.0,SSW,11.5,-,N/A,,Overcast,200,2012-12-08 10:53:00
4:53 AM,26.1,19.9,78,29.78,10.0,SSW,5.8,-,N/A,,Overcast,200,2012-12-08 11:53:00
5:53 AM,26.1,19.9,78,29.76,10.0,SSW,11.5,-,N/A,,Overcast,210,2012-12-08 12:53:00
6:53 AM,32.0,14.0,48,29.74,10.0,WSW,10.4,-,N/A,,Overcast,250,2012-12-08 13:53:00
7:53 AM,28.0,18.0,66,29.77,10.0,WSW,8.1,-,N/A,,Scattered Clouds,240,2012-12-08 14:53:00
8:53 AM,37.9,16.0,41,29.68,10.0,West,27.6,33.4,N/A,,Overcast,270,2012-12-08 15:53:00
9:53 AM,39.9,15.1,36,29.68,10.0,West,24.2,36.8,N/A,,Mostly Cloudy,270,2012-12-08 16:53:00
10:41 AM,30.2,23.0,75,29.69,7.0,NNW,27.6,36.8,0.00,,Mostly Cloudy,330,2012-12-08 17:41:00
10:49 AM,28.4,23.0,80,29.69,1.8,NW,21.9,35.7,0.00,Snow,Light Snow,320,2012-12-08 17:49:00
10:53 AM,28.0,24.1,85,29.76,0.8,NW,21.9,35.7,0.00,Snow,Light Snow,320,2012-12-08 17:53:00
11:00 AM,28.4,24.8,86,29.68,0.2,NW,23.0,33.4,0.00,Fog-Snow,Snow,320,2012-12-08 18:00:00
11:16 AM,26.6,24.8,93,29.69,0.2,WNW,19.6,32.2,0.00,Fog-Snow,Heavy Snow,300,2012-12-08 18:16:00
11:23 AM,28.4,24.8,86,29.68,0.5,WNW,15.0,28.8,0.00,Fog-Snow,Light Snow,290,2012-12-08 18:23:00
11:27 AM,28.4,24.8,86,29.68,1.0,WNW,17.3,25.3,0.01,Snow,Light Snow,290,2012-12-08 18:27:00
11:39 AM,28.4,24.8,86,29.67,2.0,WNW,13.8,20.7,0.01,Snow,Light Snow,290,2012-12-08 18:39:00
11:53 AM,30.9,23.0,72,29.73,6.0,NW,12.7,-,0.01,Snow,Light Snow,310,2012-12-08 18:53:00
12:01 PM,32.0,23.0,69,29.66,10.0,NW,20.7,26.5,0.00,,Scattered Clouds,320,2012-12-08 19:01:00
12:53 PM,28.9,21.9,75,29.73,9.0,NW,18.4,27.6,0.00,,Overcast,310,2012-12-08 19:53:00
1:53 PM,30.9,18.0,59,29.72,10.0,WNW,23.0,32.2,0.00,,Mostly Cloudy,290,2012-12-08 20:53:00
2:53 PM,30.0,15.1,54,29.73,10.0,WNW,21.9,32.2,N/A,,Overcast,290,2012-12-08 21:53:00
3:53 PM,26.1,14.0,60,29.81,10.0,WNW,26.5,38.0,N/A,,Overcast,300,2012-12-08 22:53:00
4:53 PM,24.1,8.1,51,29.87,10.0,NW,21.9,34.5,N/A,,Overcast,320,2012-12-08 23:53:00
5:53 PM,23.0,3.9,44,29.90,10.0,WNW,16.1,25.3,N/A,,Overcast,290,2012-12-09 00:53:00
6:53 PM,21.9,-0.9,37,29.92,10.0,WNW,16.1,26.5,N/A,,Overcast,300,2012-12-09 01:53:00
7:53 PM,19.9,-0.0,42,29.97,10.0,NW,23.0,33.4,N/A,,Clear,310,2012-12-09 02:53:00
8:53 PM,19.0,1.9,47,29.92,10.0,WNW,20.7,31.1,N/A,,Partly Cloudy,300,2012-12-09 03:53:00
9:53 PM,18.0,3.0,52,29.93,10.0,NW,21.9,28.8,N/A,,Clear,310,2012-12-09 04:53:00
10:53 PM,17.1,3.9,56,29.96,10.0,NNW,23.0,31.1,N/A,,Scattered Clouds,330,2012-12-09 05:53:00
11:53 PM,16.0,3.9,59,29.98,10.0,NNW,19.6,31.1,N/A,,Partly Cloudy,330,2012-12-09 06:53:00